SWA4712 KBWI-KSDF

Flight info

Callsign SWA4712
Flight time N/A
Altitude 32000
Route FOXHL1 OTTTO Q68 YOCKY LEDDL1
Aircraft B738/M-SADE2E3GIJ4RWZ/LB1D1

Departure

Time 2026-05-03 21:10
Airport Baltimore/Washington International Thurgood Marshall Airport (KBWI)

Arrival

Time N/A
Airport Louisville Muhammad Ali International Airport (KSDF)
Time Latitude Longitude Altitude Speed Heading
2026-05-03 20:20 39.17754 -76.67089 145 ft 0 kts 81°
2026-05-03 20:52 39.17753 -76.67104 144 ft 2 kts 83°
2026-05-03 20:52 39.17750 -76.67122 144 ft 2 kts 81°
2026-05-03 20:53 39.17748 -76.67142 144 ft 2 kts 90°
2026-05-03 20:53 39.17751 -76.67162 143 ft 2 kts 112°
2026-05-03 20:53 39.17759 -76.67178 143 ft 2 kts 131°
2026-05-03 20:53 39.17765 -76.67187 143 ft 0 kts 142°
2026-05-03 20:54 39.17771 -76.67191 143 ft 0 kts 145°
2026-05-03 20:54 39.17771 -76.67192 142 ft 0 kts 145°
2026-05-03 21:00 39.17766 -76.67188 143 ft 4 kts 147°
2026-05-03 21:01 39.17728 -76.67161 143 ft 6 kts 152°
2026-05-03 21:01 39.17684 -76.67130 143 ft 5 kts 150°
2026-05-03 21:01 39.17648 -76.67099 144 ft 0 kts 143°
2026-05-03 21:01 39.17645 -76.67096 144 ft 2 kts 143°
2026-05-03 21:02 39.17617 -76.67071 145 ft 7 kts 143°
2026-05-03 21:02 39.17564 -76.67006 146 ft 8 kts 125°
2026-05-03 21:02 39.17540 -76.66918 146 ft 10 kts 100°
2026-05-03 21:02 39.17494 -76.66866 146 ft 8 kts 185°
2026-05-03 21:03 39.17469 -76.66918 146 ft 5 kts 281°
2026-05-03 21:03 39.17468 -76.66936 146 ft 0 kts 152°
2026-05-03 21:03 39.17470 -76.66912 146 ft 3 kts 89°
2026-05-03 21:03 39.17468 -76.66865 146 ft 9 kts 95°
2026-05-03 21:04 39.17457 -76.66707 146 ft 16 kts 94°
2026-05-03 21:04 39.17450 -76.66560 146 ft 15 kts 90°
2026-05-03 21:04 39.17469 -76.66489 146 ft 0 kts 44°
2026-05-03 21:04 39.17493 -76.66464 145 ft 12 kts 37°
2026-05-03 21:05 39.17518 -76.66367 144 ft 12 kts 109°
2026-05-03 21:05 39.17471 -76.66265 141 ft 13 kts 114°
2026-05-03 21:05 39.17451 -76.66145 139 ft 14 kts 95°
2026-05-03 21:05 39.17444 -76.66012 136 ft 15 kts 92°
2026-05-03 21:06 39.17437 -76.65870 133 ft 16 kts 94°
2026-05-03 21:06 39.17428 -76.65717 130 ft 18 kts 93°
2026-05-03 21:06 39.17413 -76.65565 124 ft 6 kts 119°
2026-05-03 21:06 39.17382 -76.65525 123 ft 3 kts 168°
2026-05-03 21:07 39.17381 -76.65525 123 ft 0 kts 180°
2026-05-03 21:07 39.17375 -76.65525 123 ft 5 kts 180°
2026-05-03 21:07 39.17303 -76.65528 124 ft 10 kts 190°
2026-05-03 21:07 39.17283 -76.65577 126 ft 4 kts 260°
2026-05-03 21:08 39.17283 -76.65589 127 ft 0 kts 272°
2026-05-03 21:09 39.17283 -76.65606 127 ft 7 kts 272°
2026-05-03 21:09 39.17285 -76.65668 129 ft 1 kts 274°
2026-05-03 21:09 39.17295 -76.65844 134 ft 47 kts 273°
2026-05-03 21:09 39.17331 -76.66447 145 ft 98 kts 275°
2026-05-03 21:10 39.17395 -76.67554 137 ft 145 kts 275°
2026-05-03 21:10 39.17462 -76.68945 394 ft 160 kts 276°
2026-05-03 21:10 39.17561 -76.70392 867 ft 165 kts 276°
2026-05-03 21:10 39.17662 -76.71771 1336 ft 168 kts 278°
2026-05-03 21:11 39.17825 -76.73377 1448 ft 193 kts 281°
2026-05-03 21:11 39.18112 -76.75067 2026 ft 192 kts 285°
2026-05-03 21:11 39.18426 -76.76798 2282 ft 211 kts 283°
2026-05-03 21:11 39.18640 -76.78586 2567 ft 226 kts 278°
2026-05-03 21:12 39.19105 -76.82166 3225 ft 246 kts 284°
2026-05-03 21:12 39.19513 -76.84317 3837 ft 249 kts 285°
2026-05-03 21:12 39.19948 -76.86494 4496 ft 252 kts 285°
2026-05-03 21:13 39.20335 -76.88435 5244 ft 253 kts 285°
2026-05-03 21:13 39.20806 -76.90836 6160 ft 255 kts 285°
2026-05-03 21:13 39.21245 -76.93093 7022 ft 257 kts 285°
2026-05-03 21:13 39.21526 -76.94540 7556 ft 258 kts 285°
2026-05-03 21:14 39.21883 -76.96454 8265 ft 259 kts 283°
2026-05-03 21:14 39.22109 -76.99044 9171 ft 262 kts 275°
2026-05-03 21:14 39.22135 -77.01467 9967 ft 265 kts 274°
2026-05-03 21:14 39.22132 -77.04061 10587 ft 275 kts 274°
2026-05-03 21:15 39.22144 -77.06341 10944 ft 289 kts 274°
2026-05-03 21:15 39.22167 -77.08388 11283 ft 299 kts 274°
2026-05-03 21:15 39.22166 -77.10788 11607 ft 313 kts 270°
2026-05-03 21:16 39.17476 -77.20461 13799 ft 359 kts 230°
2026-05-03 21:16 39.15621 -77.22803 14582 ft 361 kts 230°
2026-05-03 21:17 39.14494 -77.24231 15013 ft 363 kts 230°
2026-05-03 21:17 39.13475 -77.25532 15526 ft 361 kts 230°
2026-05-03 21:17 39.10604 -77.29248 16696 ft 363 kts 231°
2026-05-03 21:18 39.07491 -77.33362 17861 ft 367 kts 233°
2026-05-03 21:18 39.06073 -77.35555 18473 ft 363 kts 239°
2026-05-03 21:18 39.04536 -77.38823 19230 ft 360 kts 249°
2026-05-03 21:18 39.03553 -77.41936 19836 ft 360 kts 255°
2026-05-03 21:19 39.03028 -77.43969 20217 ft 362 kts 257°
2026-05-03 21:19 39.02403 -77.46636 20726 ft 363 kts 258°
2026-05-03 21:19 39.01562 -77.50449 21432 ft 366 kts 258°
2026-05-03 21:19 39.00876 -77.53588 21992 ft 369 kts 259°
2026-05-03 21:20 39.00098 -77.57117 22631 ft 371 kts 259°
2026-05-03 21:20 38.99445 -77.60046 23126 ft 373 kts 259°
2026-05-03 21:20 38.98134 -77.65834 24136 ft 376 kts 258°
2026-05-03 21:21 38.97471 -77.68738 24539 ft 379 kts 259°
2026-05-03 21:21 38.96796 -77.71686 25098 ft 379 kts 258°
2026-05-03 21:21 38.96072 -77.74834 25539 ft 382 kts 258°
2026-05-03 21:21 38.95335 -77.78036 25991 ft 384 kts 258°
2026-05-03 21:22 38.94590 -77.81261 26471 ft 386 kts 259°
2026-05-03 21:22 38.94127 -77.83265 26689 ft 388 kts 259°
2026-05-03 21:22 38.93518 -77.85898 27115 ft 388 kts 259°
2026-05-03 21:22 38.92635 -77.89707 27621 ft 390 kts 259°
2026-05-03 21:23 38.91947 -77.92673 28004 ft 391 kts 258°
2026-05-03 21:23 38.90646 -77.98264 28763 ft 393 kts 259°
2026-05-03 21:23 38.89923 -78.01363 29123 ft 394 kts 259°
2026-05-03 21:24 38.89101 -78.04884 29603 ft 394 kts 259°
2026-05-03 21:24 38.88362 -78.08041 30089 ft 392 kts 259°
2026-05-03 21:24 38.87803 -78.10423 30491 ft 389 kts 259°
2026-05-03 21:24 38.87060 -78.13583 30983 ft 386 kts 259°
2026-05-03 21:25 38.86390 -78.16593 31415 ft 381 kts 261°
2026-05-03 21:25 38.85841 -78.19825 31859 ft 376 kts 265°
2026-05-03 21:25 38.85486 -78.23538 32018 ft 376 kts 269°
2026-05-03 21:25 38.85357 -78.26912 32033 ft 374 kts 272°
2026-05-03 21:26 38.85318 -78.33200 32137 ft 368 kts 274°
2026-05-03 21:26 38.85361 -78.36247 32792 ft 355 kts 275°
2026-05-03 21:26 38.85547 -78.38839 32941 ft 355 kts 280°
2026-05-03 21:27 38.87271 -78.45564 32723 ft 372 kts 300°
2026-05-03 21:27 38.88823 -78.48003 32458 ft 372 kts 309°
2026-05-03 21:28 38.92168 -78.51597 32249 ft 385 kts 317°
2026-05-03 21:28 38.94402 -78.53734 32039 ft 379 kts 316°
2026-05-03 21:28 38.97865 -78.58021 32034 ft 376 kts 306°
2026-05-03 21:29 39.00773 -78.63966 32031 ft 371 kts 293°
2026-05-03 21:29 39.02213 -78.69582 32034 ft 371 kts 282°
2026-05-03 21:30 39.02642 -78.75474 32024 ft 374 kts 272°
2026-05-03 21:30 39.01842 -78.81955 32023 ft 385 kts 253°
2026-05-03 21:31 39.00365 -78.85055 32040 ft 401 kts 240°
2026-05-03 21:31 38.98444 -78.87781 32029 ft 408 kts 234°
2026-05-03 21:31 38.95024 -78.92018 32027 ft 411 kts 232°
2026-05-03 21:32 38.91306 -78.96458 32027 ft 407 kts 232°
2026-05-03 21:33 38.84031 -79.05094 32035 ft 410 kts 232°
2026-05-03 21:33 38.79917 -79.09957 32026 ft 410 kts 232°
2026-05-03 21:34 38.77209 -79.13346 32037 ft 405 kts 236°
2026-05-03 21:34 38.73999 -79.18529 32032 ft 395 kts 244°